TimeCDT,TemperatureF,Dew PointF,Humidity,Sea Level PressureIn,VisibilityMPH,Wind Direction,Wind SpeedMPH,Gust SpeedMPH,PrecipitationIn,Events,Conditions,WindDirDegrees,DateUTC
12:53 AM,71.1,70.0,96,30.22,1.5,Calm,Calm,-,N/A,,Clear,0,2013-08-26 05:53:00
1:02 AM,71.6,69.8,94,30.23,0.5,Calm,Calm,-,N/A,Fog,Fog,0,2013-08-26 06:02:00
1:13 AM,71.6,69.8,94,30.22,1.2,Calm,Calm,-,N/A,,Clear,0,2013-08-26 06:13:00
1:22 AM,71.6,71.6,100,30.22,3.0,Calm,Calm,-,N/A,,Clear,0,2013-08-26 06:22:00
1:26 AM,71.6,71.6,100,30.22,1.2,Calm,Calm,-,N/A,,Clear,0,2013-08-26 06:26:00
1:32 AM,71.6,69.8,94,30.22,0.2,Calm,Calm,-,N/A,Fog,Fog,0,2013-08-26 06:32:00
1:53 AM,69.1,69.1,100,30.21,0.2,Calm,Calm,-,N/A,Fog,Fog,0,2013-08-26 06:53:00
2:17 AM,69.8,69.8,100,30.22,0.8,Calm,Calm,-,N/A,,Clear,0,2013-08-26 07:17:00
2:20 AM,69.8,69.8,100,30.22,2.0,Calm,Calm,-,N/A,,Clear,0,2013-08-26 07:20:00
2:27 AM,69.8,69.8,100,30.22,5.0,Calm,Calm,-,N/A,,Clear,0,2013-08-26 07:27:00
2:53 AM,70.0,69.1,97,30.21,4.0,Calm,Calm,-,N/A,,Clear,0,2013-08-26 07:53:00
3:03 AM,71.6,69.8,94,30.22,2.0,Calm,Calm,-,N/A,,Clear,0,2013-08-26 08:03:00
3:10 AM,69.8,68.0,94,30.22,0.8,Calm,Calm,-,N/A,,Clear,0,2013-08-26 08:10:00
3:29 AM,69.8,69.8,100,30.21,1.8,Calm,Calm,-,N/A,,Clear,0,2013-08-26 08:29:00
3:36 AM,69.8,68.0,94,30.21,2.5,Calm,Calm,-,N/A,,Clear,0,2013-08-26 08:36:00
3:53 AM,71.1,69.1,93,30.20,2.5,Calm,Calm,-,N/A,,Clear,0,2013-08-26 08:53:00
4:22 AM,71.6,69.8,94,30.21,1.8,Calm,Calm,-,N/A,,Clear,0,2013-08-26 09:22:00
4:36 AM,71.6,69.8,94,30.21,3.0,Calm,Calm,-,N/A,,Clear,0,2013-08-26 09:36:00
4:48 AM,71.6,69.8,94,30.21,2.5,Calm,Calm,-,N/A,,Clear,0,2013-08-26 09:48:00
4:53 AM,70.0,69.1,97,30.21,2.5,Calm,Calm,-,N/A,,Clear,0,2013-08-26 09:53:00
5:00 AM,69.8,69.8,100,30.22,1.2,Calm,Calm,-,N/A,,Partly Cloudy,0,2013-08-26 10:00:00
5:03 AM,69.8,69.8,100,30.22,0.8,Calm,Calm,-,N/A,,Mist,0,2013-08-26 10:03:00
5:17 AM,69.8,69.8,100,30.22,1.2,Calm,Calm,-,N/A,,Partly Cloudy,0,2013-08-26 10:17:00
5:26 AM,69.8,68.0,94,30.22,2.5,Calm,Calm,-,N/A,,Partly Cloudy,0,2013-08-26 10:26:00
5:33 AM,69.8,69.8,100,30.22,1.0,Calm,Calm,-,N/A,,Mist,0,2013-08-26 10:33:00
5:41 AM,68.0,68.0,100,30.22,0.5,Calm,Calm,-,N/A,Fog,Fog,0,2013-08-26 10:41:00
5:49 AM,69.8,68.0,94,30.22,0.2,Calm,Calm,-,N/A,Fog,Fog,0,2013-08-26 10:49:00
5:53 AM,68.0,66.9,96,30.22,0.2,Calm,Calm,-,N/A,Fog,Fog,0,2013-08-26 10:53:00
6:01 AM,69.8,68.0,94,30.23,0.8,Calm,Calm,-,N/A,,Mist,0,2013-08-26 11:01:00
6:04 AM,69.8,68.0,94,30.22,1.2,Calm,Calm,-,N/A,,Partly Cloudy,0,2013-08-26 11:04:00
6:21 AM,68.0,66.2,94,30.23,0.5,Calm,Calm,-,N/A,Fog,Fog,0,2013-08-26 11:21:00
6:28 AM,68.0,66.2,94,30.24,0.2,Calm,Calm,-,N/A,Fog,Fog,0,2013-08-26 11:28:00
6:53 AM,68.0,68.0,100,30.23,0.2,ESE,3.5,-,N/A,Fog,Fog,110,2013-08-26 11:53:00
7:08 AM,71.6,69.8,94,30.25,1.0,ESE,3.5,-,N/A,,Mist,110,2013-08-26 12:08:00
7:16 AM,71.6,69.8,94,30.25,1.8,Calm,Calm,-,N/A,,Partly Cloudy,0,2013-08-26 12:16:00
7:33 AM,73.4,71.6,94,30.25,2.0,Calm,Calm,-,N/A,,Clear,0,2013-08-26 12:33:00
7:51 AM,73.4,71.6,94,30.25,3.0,Calm,Calm,-,N/A,,Clear,0,2013-08-26 12:51:00
7:53 AM,73.9,72.0,93,30.24,4.0,South,3.5,-,N/A,,Clear,180,2013-08-26 12:53:00
8:53 AM,78.1,73.0,84,30.25,6.0,SSW,4.6,-,N/A,,Haze,210,2013-08-26 13:53:00
9:53 AM,81.0,73.0,77,30.25,7.0,West,6.9,-,N/A,,Clear,260,2013-08-26 14:53:00
10:53 AM,82.9,73.9,74,30.24,9.0,SW,9.2,-,N/A,,Scattered Clouds,220,2013-08-26 15:53:00
11:10 AM,82.4,73.4,74,30.24,10.0,WSW,6.9,-,N/A,,Mostly Cloudy,250,2013-08-26 16:10:00
11:49 AM,84.2,73.4,70,30.24,10.0,SW,5.8,-,N/A,,Scattered Clouds,220,2013-08-26 16:49:00
11:53 AM,84.9,73.0,67,30.23,10.0,SW,9.2,-,N/A,,Scattered Clouds,220,2013-08-26 16:53:00
12:53 PM,82.9,72.0,69,30.20,10.0,WSW,5.8,-,N/A,,Clear,250,2013-08-26 17:53:00
1:53 PM,87.1,73.0,63,30.19,10.0,SSW,4.6,-,N/A,,Partly Cloudy,200,2013-08-26 18:53:00
2:53 PM,88.0,73.0,61,30.16,10.0,SSW,6.9,-,N/A,,Partly Cloudy,210,2013-08-26 19:53:00
3:53 PM,88.0,72.0,59,30.14,10.0,SW,8.1,-,N/A,,Clear,230,2013-08-26 20:53:00
4:53 PM,87.1,72.0,61,30.12,10.0,SSW,8.1,-,N/A,,Clear,200,2013-08-26 21:53:00
5:53 PM,86.0,73.0,65,30.12,10.0,SSW,6.9,-,N/A,,Clear,210,2013-08-26 22:53:00
6:53 PM,82.9,73.0,72,30.11,10.0,SSW,4.6,-,N/A,,Clear,200,2013-08-26 23:53:00
7:53 PM,79.0,72.0,79,30.11,10.0,South,4.6,-,N/A,,Clear,190,2013-08-27 00:53:00
8:53 PM,77.0,71.1,82,30.12,10.0,South,4.6,-,N/A,,Clear,190,2013-08-27 01:53:00
9:53 PM,75.0,71.1,87,30.12,9.0,Calm,Calm,-,N/A,,Clear,0,2013-08-27 02:53:00
10:53 PM,73.0,70.0,90,30.12,8.0,Calm,Calm,-,N/A,,Clear,0,2013-08-27 03:53:00
11:53 PM,73.9,70.0,87,30.11,9.0,Calm,Calm,-,N/A,,Clear,0,2013-08-27 04:53:00